FW5392 Weather Reports


time (UTC)temp
F
wind
direction
speed
knots
gust
knots
rain 1hr
in
rain 24hr
in
rain mn
in
humidity
%
barometer
mb
20260503160117 75 108 0.0 3.5 0.00 0.00 0.00 48 1018.6
20260503150524 75 66 0.9 3.5 0.00 0.00 0.00 53 1018.9
20260503131048 77 56 0.0 3.5 0.00 0.00 0.00 51 1019.6
20260503130524 78 57 0.9 2.6 0.00 0.00 0.00 47 1019.6
20260503110600 74 71 0.0 3.5 0.00 0.00 0.00 56 1020.3
20260503081533 71 32 0.9 4.3 0.00 0.00 0.00 50 1021.4
20260503081103 72 18 0.9 4.3 0.00 0.00 0.00 51 1021.3
20260503080524 73 34 0.0 2.6 0.00 0.00 0.00 48 1021.3
20260503080104 72 31 0.0 3.5 0.00 0.00 0.00 46 1021.4
20260503072526 69 359 0.9 6.1 0.00 0.00 0.00 46 1021.3
20260503072053 69 2 2.6 6.1 0.00 0.00 0.00 46 1021.3
20260503071531 69 242 0.0 4.3 0.00 0.00 0.00 49 1021.3
20260503071059 68 259 0.9 4.3 0.00 0.00 0.00 49 1021.3
20260503070532 68 254 0.9 4.3 0.00 0.00 0.00 48 1021.3
20260503055023 60 248 1.7 4.3 0.00 0.00 0.00 58 1021.2
20260503054600 60 155 0.9 4.3 0.00 0.00 0.00 58 1021.2
20260503054021 59 134 0.9 3.5 0.00 0.00 0.00 60 1021.1
20260503053542 59 184 0.9 5.2 0.00 0.00 0.00 59 1021.2
20260503053104 58 133 1.7 6.1 0.00 0.00 0.00 61 1021.1
20260503052040 55 179 2.6 4.3 0.00 0.00 0.00 67 1021.1
20260503051507 55 252 2.6 5.2 0.00 0.00 0.00 67 1021.1
20260503051041 54 185 1.7 5.2 0.00 0.00 0.00 68 1021.1
20260503050505 53 158 2.6 5.2 0.00 0.00 0.00 69 1021.1
20260503050046 52 202 1.7 5.2 0.00 0.00 0.00 69 1021.1
20260503045508 52 164 2.6 5.2 0.00 0.00 0.00 70 1021.1
20260503045049 51 212 3.5 5.2 0.00 0.00 0.00 70 1021.1
20260503044523 51 45 2.6 5.2 0.00 0.00 0.00 69 1021.0
20260503044053 51 213 1.7 5.2 0.00 0.00 0.00 70 1021.1
20260503043511 50 298 2.6 4.3 0.00 0.00 0.00 70 1021.1
20260503043051 50 150 2.6 4.3 0.00 0.00 0.00 69 1021.1
20260503042528 51 154 2.6 4.3 0.00 0.00 0.00 68 1021.0
20260503042050 52 216 1.7 3.5 0.00 0.00 0.00 66 1021.2
20260503041521 54 140 0.0 0.9 0.00 0.00 0.00 66 1021.1
20260503041049 52 140 0.0 0.9 0.00 0.00 0.00 68 1021.2
20260503040509 52 154 0.0 4.3 0.00 0.00 0.00 65 1021.1
20260503040059 52 128 0.9 4.3 0.00 0.00 0.00 64 1021.0
20260503035530 52 207 1.7 4.3 0.00 0.00 0.00 65 1021.0
20260503035053 52 197 1.7 5.2 0.00 0.00 0.00 65 1021.0